SWA8700 KLGA-KDCA

Flight info

Callsign SWA8700
Flight time 0h 46m
Altitude 26000
Route BIGGY Q75 MXE CLIPR3
Aircraft B737/M-SADE2E3GIJ4RWZ/LB1D1

Departure

Time 2026-04-23 02:40
Airport LaGuardia Airport (KLGA)

Arrival

Time 2026-04-23 03:26
Airport Ronald Reagan Washington National Airport (KDCA)
Time Latitude Longitude Altitude Speed Heading
2026-04-23 02:40 40.67912 -73.91581 10128 ft 247 kts 294°
2026-04-23 02:40 40.68765 -73.93701 10686 ft 275 kts 301°
2026-04-23 02:41 40.69430 -73.95147 11390 ft 281 kts 302°
2026-04-23 02:41 40.70432 -73.97366 12696 ft 284 kts 297°
2026-04-23 02:41 40.70812 -73.99948 13971 ft 296 kts 273°
2026-04-23 02:41 40.70464 -74.02670 15125 ft 309 kts 259°
2026-04-23 02:42 40.69735 -74.05372 16317 ft 316 kts 256°
2026-04-23 02:42 40.68926 -74.08068 17689 ft 315 kts 256°
2026-04-23 02:42 40.68108 -74.10724 19103 ft 310 kts 256°
2026-04-23 02:42 40.67302 -74.13341 20416 ft 307 kts 256°
2026-04-23 02:43 40.66508 -74.15953 21618 ft 307 kts 256°
2026-04-23 02:43 40.65721 -74.18562 22897 ft 305 kts 256°
2026-04-23 02:43 40.64943 -74.21146 24150 ft 301 kts 257°
2026-04-23 02:43 40.64176 -74.23709 25194 ft 301 kts 257°
2026-04-23 02:44 40.63405 -74.26301 25780 ft 304 kts 258°
2026-04-23 02:44 40.62635 -74.28882 26053 ft 305 kts 258°
2026-04-23 02:44 40.61861 -74.31495 26064 ft 318 kts 258°
2026-04-23 02:44 40.61031 -74.34329 26090 ft 346 kts 257°
2026-04-23 02:45 40.60131 -74.37391 26065 ft 370 kts 256°
2026-04-23 02:45 40.59167 -74.40639 26076 ft 392 kts 256°
2026-04-23 02:45 40.58146 -74.44053 26076 ft 410 kts 256°
2026-04-23 02:45 40.57076 -74.47609 26062 ft 425 kts 255°
2026-04-23 02:46 40.55967 -74.51284 26053 ft 438 kts 255°
2026-04-23 02:46 40.54829 -74.55048 26048 ft 448 kts 255°
2026-04-23 02:46 40.53669 -74.58878 26032 ft 453 kts 255°
2026-04-23 02:46 40.52507 -74.62706 26021 ft 450 kts 255°
2026-04-23 02:47 40.51347 -74.66530 26033 ft 450 kts 255°
2026-04-23 02:47 40.50189 -74.70353 26037 ft 451 kts 255°
2026-04-23 02:47 40.49029 -74.74183 26039 ft 451 kts 255°
2026-04-23 02:47 40.47870 -74.78008 26043 ft 451 kts 255°
2026-04-23 02:48 40.46711 -74.81830 26038 ft 451 kts 255°
2026-04-23 02:48 40.45547 -74.85663 26039 ft 451 kts 255°
2026-04-23 02:48 40.44381 -74.89494 26042 ft 452 kts 255°
2026-04-23 02:48 40.43209 -74.93321 26042 ft 452 kts 253°
2026-04-23 02:49 40.41780 -74.96973 26041 ft 460 kts 245°
2026-04-23 02:49 40.39889 -75.00462 26034 ft 468 kts 236°
2026-04-23 02:49 40.37675 -75.03625 26044 ft 471 kts 233°
2026-04-23 02:49 40.35442 -75.06689 26009 ft 472 kts 232°
2026-04-23 02:50 40.33163 -75.09797 26027 ft 472 kts 232°
2026-04-23 02:50 40.30901 -75.12902 26030 ft 472 kts 232°
2026-04-23 02:50 40.28641 -75.16032 26031 ft 472 kts 232°
2026-04-23 02:50 40.26394 -75.19162 26040 ft 472 kts 233°
2026-04-23 02:51 40.24144 -75.22306 26036 ft 472 kts 233°
2026-04-23 02:51 40.21898 -75.25444 26037 ft 472 kts 233°
2026-04-23 02:51 40.19648 -75.28586 26037 ft 473 kts 233°
2026-04-23 02:51 40.17401 -75.31718 26027 ft 473 kts 232°
2026-04-23 02:52 40.15148 -75.34854 26034 ft 473 kts 232°
2026-04-23 02:52 40.12888 -75.37992 26040 ft 473 kts 232°
2026-04-23 02:52 40.10630 -75.41124 26038 ft 473 kts 232°
2026-04-23 02:52 40.08371 -75.44249 26016 ft 474 kts 232°
2026-04-23 02:53 40.06110 -75.47375 26030 ft 474 kts 232°
2026-04-23 02:53 40.03844 -75.50505 26040 ft 474 kts 232°
2026-04-23 02:53 40.01579 -75.53632 26033 ft 474 kts 232°
2026-04-23 02:53 39.99314 -75.56756 26017 ft 474 kts 232°
2026-04-23 02:54 39.97077 -75.59840 26032 ft 474 kts 232°
2026-04-23 02:54 39.94806 -75.62966 26035 ft 474 kts 232°
2026-04-23 02:54 39.92541 -75.66080 26034 ft 474 kts 232°
2026-04-23 02:54 39.90452 -75.69249 26017 ft 444 kts 239°
2026-04-23 02:55 39.88729 -75.72479 25999 ft 413 kts 243°
2026-04-23 02:55 39.87233 -75.75476 25999 ft 388 kts 244°
2026-04-23 02:55 39.85811 -75.78348 25980 ft 368 kts 244°
2026-04-23 02:55 39.84430 -75.81105 25627 ft 358 kts 243°
2026-04-23 02:56 39.83065 -75.83790 25190 ft 354 kts 243°
2026-04-23 02:56 39.81703 -75.86436 24727 ft 350 kts 242°
2026-04-23 02:56 39.80345 -75.89053 24252 ft 348 kts 242°
2026-04-23 02:56 39.78991 -75.91649 23767 ft 346 kts 241°
2026-04-23 02:57 39.77643 -75.94227 23208 ft 344 kts 241°
2026-04-23 02:57 39.76301 -75.96786 22653 ft 341 kts 241°
2026-04-23 02:57 39.74970 -75.99320 22126 ft 338 kts 241°
2026-04-23 02:57 39.73653 -76.01827 21641 ft 334 kts 241°
2026-04-23 02:58 39.72348 -76.04312 21139 ft 331 kts 241°
2026-04-23 02:58 39.71055 -76.06773 20646 ft 329 kts 241°
2026-04-23 02:58 39.69768 -76.09218 20159 ft 326 kts 242°
2026-04-23 02:58 39.68491 -76.11643 19673 ft 325 kts 242°
2026-04-23 02:59 39.67219 -76.14058 19183 ft 323 kts 242°
2026-04-23 02:59 39.65952 -76.16459 18690 ft 322 kts 242°
2026-04-23 02:59 39.64684 -76.18862 18159 ft 322 kts 242°
2026-04-23 02:59 39.63422 -76.21254 17620 ft 320 kts 241°
2026-04-23 03:00 39.62165 -76.23631 17104 ft 318 kts 241°
2026-04-23 03:00 39.60924 -76.25976 16619 ft 315 kts 242°
2026-04-23 03:00 39.59687 -76.28312 16121 ft 312 kts 242°
2026-04-23 03:00 39.58321 -76.30501 15622 ft 319 kts 226°
2026-04-23 03:01 39.56520 -76.32145 15187 ft 320 kts 219°
2026-04-23 03:01 39.54627 -76.33724 14683 ft 319 kts 219°
2026-04-23 03:01 39.52799 -76.35273 14190 ft 318 kts 219°
2026-04-23 03:01 39.50956 -76.36858 13671 ft 317 kts 220°
2026-04-23 03:02 39.49125 -76.38444 13139 ft 315 kts 220°
2026-04-23 03:02 39.47315 -76.40015 12640 ft 312 kts 220°
2026-04-23 03:02 39.45524 -76.41569 12145 ft 308 kts 220°
2026-04-23 03:02 39.43774 -76.43086 11936 ft 295 kts 220°
2026-04-23 03:03 39.42100 -76.44531 11800 ft 282 kts 220°
2026-04-23 03:03 39.40502 -76.45910 11657 ft 272 kts 220°
2026-04-23 03:03 39.38939 -76.47265 11547 ft 269 kts 221°
2026-04-23 03:03 39.37384 -76.48615 11470 ft 270 kts 221°
2026-04-23 03:04 39.35823 -76.49971 11359 ft 271 kts 221°
2026-04-23 03:04 39.34256 -76.51329 11239 ft 271 kts 220°
2026-04-23 03:04 39.32685 -76.52690 11128 ft 272 kts 220°
2026-04-23 03:04 39.31112 -76.54051 11019 ft 273 kts 220°
2026-04-23 03:05 39.29532 -76.55416 10895 ft 273 kts 220°
2026-04-23 03:05 39.27951 -76.56781 10786 ft 274 kts 220°
2026-04-23 03:05 39.26369 -76.58146 10652 ft 273 kts 220°
2026-04-23 03:05 39.24788 -76.59510 10527 ft 273 kts 220°
2026-04-23 03:06 39.23208 -76.60872 10422 ft 273 kts 220°
2026-04-23 03:06 39.21652 -76.62212 10310 ft 272 kts 220°
2026-04-23 03:06 39.20077 -76.63568 10192 ft 271 kts 220°
2026-04-23 03:06 39.18511 -76.64914 10082 ft 270 kts 220°
2026-04-23 03:07 39.16959 -76.66262 9955 ft 268 kts 223°
2026-04-23 03:07 39.15541 -76.67799 9776 ft 265 kts 229°
2026-04-23 03:07 39.14195 -76.69425 9581 ft 264 kts 230°
2026-04-23 03:07 39.12878 -76.71032 9405 ft 259 kts 230°
2026-04-23 03:08 39.11577 -76.72609 9268 ft 256 kts 230°
2026-04-23 03:08 39.10276 -76.74177 9109 ft 256 kts 229°
2026-04-23 03:08 39.08968 -76.75745 8943 ft 257 kts 229°
2026-04-23 03:08 39.07656 -76.77310 8770 ft 258 kts 229°
2026-04-23 03:09 39.06340 -76.78873 8603 ft 257 kts 229°
2026-04-23 03:09 39.05025 -76.80433 8420 ft 257 kts 228°
2026-04-23 03:09 39.03717 -76.81981 8255 ft 255 kts 228°
2026-04-23 03:09 39.02414 -76.83520 8088 ft 253 kts 228°
2026-04-23 03:10 39.01126 -76.85040 7933 ft 250 kts 228°
2026-04-23 03:10 38.99849 -76.86547 7753 ft 248 kts 228°
2026-04-23 03:10 38.98580 -76.88042 7575 ft 247 kts 227°
2026-04-23 03:10 38.97529 -76.89717 7391 ft 237 kts 252°
2026-04-23 03:11 38.97221 -76.91743 7269 ft 229 kts 272°
2026-04-23 03:11 38.97271 -76.93777 7129 ft 229 kts 276°
2026-04-23 03:11 38.97363 -76.95829 7044 ft 231 kts 276°
2026-04-23 03:11 38.97450 -76.97896 6939 ft 234 kts 276°
2026-04-23 03:12 38.97530 -77.00005 6691 ft 233 kts 275°
2026-04-23 03:12 38.97703 -77.02028 6507 ft 222 kts 290°
2026-04-23 03:12 38.98429 -77.03695 6370 ft 215 kts 310°
2026-04-23 03:12 38.99493 -77.05042 6222 ft 215 kts 317°
2026-04-23 03:13 39.00594 -77.06346 6091 ft 215 kts 317°
2026-04-23 03:13 39.01691 -77.07655 6021 ft 216 kts 316°
2026-04-23 03:13 39.02786 -77.08970 6011 ft 215 kts 316°
2026-04-23 03:13 39.03877 -77.10290 6015 ft 215 kts 316°
2026-04-23 03:14 39.04957 -77.11626 6013 ft 215 kts 315°
2026-04-23 03:14 39.06032 -77.12964 6021 ft 215 kts 315°
2026-04-23 03:14 39.07109 -77.14306 6020 ft 216 kts 315°
2026-04-23 03:14 39.08189 -77.15651 6019 ft 216 kts 315°
2026-04-23 03:15 39.09271 -77.16999 6018 ft 216 kts 315°
2026-04-23 03:15 39.10351 -77.18346 6029 ft 216 kts 316°
2026-04-23 03:15 39.11430 -77.19691 6025 ft 216 kts 316°
2026-04-23 03:15 39.12509 -77.21037 6023 ft 216 kts 316°
2026-04-23 03:16 39.13587 -77.22380 6017 ft 215 kts 316°
2026-04-23 03:16 39.14672 -77.23700 6012 ft 214 kts 317°
2026-04-23 03:16 39.16851 -77.26317 6019 ft 214 kts 317°
2026-04-23 03:17 39.17940 -77.27628 6014 ft 214 kts 317°
2026-04-23 03:17 39.19027 -77.28940 6022 ft 214 kts 317°
2026-04-23 03:17 39.20034 -77.30346 6004 ft 215 kts 301°
2026-04-23 03:17 39.20361 -77.32217 6018 ft 222 kts 268°
2026-04-23 03:18 39.19782 -77.34171 6031 ft 248 kts 237°
2026-04-23 03:18 39.18413 -77.35603 6022 ft 263 kts 207°
2026-04-23 03:18 39.16607 -77.36031 6022 ft 269 kts 178°
2026-04-23 03:18 39.14853 -77.35327 6019 ft 270 kts 149°
2026-04-23 03:19 39.13340 -77.33907 6016 ft 266 kts 141°
2026-04-23 03:19 39.11935 -77.32431 5534 ft 262 kts 139°
2026-04-23 03:19 39.10601 -77.30955 5393 ft 244 kts 139°
2026-04-23 03:19 39.09333 -77.29537 5024 ft 239 kts 139°
2026-04-23 03:20 39.08091 -77.28150 4794 ft 229 kts 140°
2026-04-23 03:20 39.06899 -77.26823 4467 ft 225 kts 140°
2026-04-23 03:20 39.05703 -77.25494 4111 ft 228 kts 140°
2026-04-23 03:20 39.04520 -77.24181 3849 ft 221 kts 140°
2026-04-23 03:21 39.03393 -77.22931 3703 ft 209 kts 140°
2026-04-23 03:21 39.02288 -77.21710 3406 ft 208 kts 141°
2026-04-23 03:21 39.01202 -77.20509 3244 ft 206 kts 141°
2026-04-23 03:21 39.00110 -77.19302 3114 ft 209 kts 141°
2026-04-23 03:22 38.99003 -77.18081 2974 ft 211 kts 141°
2026-04-23 03:22 38.97884 -77.16847 2854 ft 212 kts 141°
2026-04-23 03:22 38.96804 -77.15656 2699 ft 196 kts 141°
2026-04-23 03:22 38.95802 -77.14545 2492 ft 184 kts 141°
2026-04-23 03:23 38.94865 -77.13506 2277 ft 171 kts 140°
2026-04-23 03:23 38.94006 -77.12569 2150 ft 154 kts 139°
2026-04-23 03:23 38.93166 -77.11673 1938 ft 156 kts 150°
2026-04-23 03:23 38.92214 -77.11080 1732 ft 151 kts 161°
2026-04-23 03:24 38.91307 -77.10432 1544 ft 147 kts 147°
2026-04-23 03:24 38.90648 -77.09487 1343 ft 139 kts 117°
2026-04-23 03:24 38.90454 -77.08335 1185 ft 132 kts 79°
2026-04-23 03:24 38.90364 -77.07153 1002 ft 135 kts 118°
2026-04-23 03:25 38.89744 -77.06347 898 ft 131 kts 149°
2026-04-23 03:25 38.88918 -77.05681 762 ft 144 kts 151°
2026-04-23 03:25 38.88113 -77.04833 525 ft 150 kts 140°
2026-04-23 03:25 38.87285 -77.04128 283 ft 143 kts 159°
2026-04-23 03:26 38.86333 -77.03892 104 ft 136 kts 175°
2026-04-23 03:26 38.85431 -77.03799 26 ft 118 kts 179°
2026-04-23 03:26 38.84825 -77.03744 23 ft 56 kts 175°
2026-04-23 03:26 38.84541 -77.03715 24 ft 38 kts 175°
2026-04-23 03:27 38.84391 -77.03792 24 ft 12 kts 268°
2026-04-23 03:27 38.84392 -77.03798 24 ft 0 kts 275°
2026-04-23 03:28 38.84393 -77.03804 24 ft 3 kts 282°
2026-04-23 03:28 38.84424 -77.03840 27 ft 10 kts 330°
2026-04-23 03:28 38.84513 -77.03849 25 ft 15 kts
2026-04-23 03:29 38.84614 -77.03862 26 ft 14 kts 354°
2026-04-23 03:29 38.84711 -77.03877 25 ft 14 kts 338°
2026-04-23 03:29 38.84726 -77.03977 24 ft 13 kts 229°
2026-04-23 03:29 38.84646 -77.04030 23 ft 13 kts 203°
2026-04-23 03:30 38.84591 -77.04112 26 ft 12 kts 249°
2026-04-23 03:30 38.84573 -77.04216 25 ft 12 kts 259°
2026-04-23 03:30 38.84566 -77.04303 23 ft 6 kts 277°
2026-04-23 03:30 38.84567 -77.04310 23 ft 0 kts 281°
2026-04-23 03:31 38.84571 -77.04318 23 ft 3 kts 310°
2026-04-23 03:31 38.84596 -77.04312 23 ft 5 kts 33°
2026-04-23 03:31 38.84620 -77.04295 23 ft 1 kts 28°
2026-04-23 03:31 38.84625 -77.04291 25 ft 1 kts 28°
2026-04-23 03:32 38.84628 -77.04290 25 ft 0 kts 28°